Tracking 29892 objects as of 21-Nov-2024
HD Live streaming from Space Station
objects crossing your sky now

STARLINK-30103

Track STARLINK-30103 now!
10-day predictions
STARLINK-30103 is classified as:


NORAD ID: 56290
Int'l Code: 2023-056E
Perigee: 565.0 km
Apogee: 567.3 km
Inclination: 43.0 °
Period: 95.8 minutes
Semi major axis: 6937 km
RCS: Unknown
Launch date: April 19, 2023
Source: United States (US)
Launch site: AIR FORCE EASTERN TEST RANGE (AFETR)
Your satellite tracking list
Your tracking list is empty




NASA's NSSDC Master Catalog

Two Line Element Set (TLE):
1 56290U 23056E   24325.87695062 -.00000075  00000-0  95606-5 0  9991
2 56290  43.0057 264.5576 0001654 288.9270  71.1393 15.02545561 88756
Source of the keplerian elements: AFSPC